DW2217 Weather Reports


time (UTC)temp
C
wind
direction
speed
KPH
gust
KPH
rain 1hr
cm
rain 24hr
cm
rain mn
cm
humidity
%
barometer
mb
20260505033040 16 157 3.2 14.5 0.00 0.00 0.00 45 1006.7
20260505032538 16 207 6.4 11.3 0.00 0.00 0.00 44 1006.5
20260505032034 16 208 6.4 8.0 0.00 0.00 0.00 43 1006.6
20260505031531 16 207 6.4 11.3 0.00 0.00 0.00 43 1006.5
20260505031027 16 209 4.8 11.3 0.00 0.00 0.00 43 1006.4
20260505030525 16 205 8.0 8.0 0.00 0.00 0.00 43 1006.5
20260505030021 16 219 8.0 11.3 0.00 0.00 0.00 45 1006.5
20260505025517 16 232 8.0 11.3 0.00 0.00 0.00 46 1006.5
20260505025016 16 207 6.4 11.3 0.00 0.00 0.00 44 1006.6
20260505024512 16 217 6.4 8.0 0.00 0.00 0.00 45 1006.7
20260505024009 16 218 8.0 8.0 0.00 0.00 0.00 47 1006.7
20260505023506 16 213 6.4 8.0 0.00 0.00 0.00 45 1006.6
20260505023004 16 211 4.8 4.8 0.00 0.00 0.00 44 1006.8
20260505022502 16 212 6.4 8.0 0.00 0.00 0.00 44 1006.6
20260505021958 16 210 4.8 8.0 0.00 0.00 0.00 43 1006.7
20260505021455 15 207 4.8 8.0 0.00 0.00 0.00 45 1006.6
20260505020950 15 198 4.8 8.0 0.00 0.00 0.00 45 1006.6
20260505020446 16 233 0.0 0.0 0.00 0.00 0.00 50 1006.5
20260505015943 16 234 4.8 8.0 0.00 0.00 0.00 43 1006.6
20260505015440 17 233 4.8 11.3 0.00 0.00 0.00 41 1006.4
20260505014937 17 219 8.0 8.0 0.00 0.00 0.00 42 1006.5
20260505014434 16 213 6.4 8.0 0.00 0.00 0.00 42 1006.3
20260505013931 16 207 4.8 4.8 0.00 0.00 0.00 42 1006.4
20260505013428 17 207 4.8 4.8 0.00 0.00 0.00 42 1006.3
20260505012926 17 207 4.8 8.0 0.00 0.00 0.00 41 1006.3
20260505012424 17 214 8.0 8.0 0.00 0.00 0.00 41 1006.2
20260505011920 17 233 4.8 8.0 0.00 0.00 0.00 42 1006.1
20260505011416 17 234 4.8 8.0 0.00 0.00 0.00 41 1006.2
20260505010913 17 212 4.8 8.0 0.00 0.00 0.00 41 1006.1
20260505010409 17 233 8.0 11.3 0.00 0.00 0.00 40 1006.2
20260505005905 17 218 8.0 8.0 0.00 0.00 0.00 41 1005.9
20260505005402 17 217 6.4 8.0 0.00 0.00 0.00 42 1005.9
20260505004859 17 217 8.0 11.3 0.00 0.00 0.00 40 1006.0
20260505004356 17 217 8.0 8.0 0.00 0.00 0.00 41 1006.0
20260505003853 17 216 6.4 8.0 0.00 0.00 0.00 41 1005.7
20260505003350 17 215 6.4 8.0 0.00 0.00 0.00 41 1005.4
20260505002846 17 213 6.4 8.0 0.00 0.00 0.00 41 1005.6
20260505002343 17 212 8.0 8.0 0.00 0.00 0.00 41 1005.3
20260505001842 17 209 6.4 8.0 0.00 0.00 0.00 41 1005.3
20260505001338 17 208 3.2 4.8 0.00 0.00 0.00 40 1005.3
20260505000835 17 208 3.2 4.8 0.00 0.00 0.00 40 1005.3
20260505000333 17 208 4.8 4.8 0.00 0.00 0.00 40 1005.2
20260504235829 17 209 6.4 8.0 0.00 0.00 0.00 39 1005.3
20260504235327 17 204 3.2 4.8 0.00 0.00 0.00 40 1005.1
20260504234823 18 204 6.4 8.0 0.00 0.00 0.00 39 1005.0
20260504234321 18 203 0.0 3.2 0.00 0.00 0.00 40 1005.0
20260504233817 18 204 4.8 4.8 0.00 0.00 0.00 39 1004.9
20260504233313 18 204 4.8 8.0 0.00 0.00 0.00 38 1005.0
20260504232810 18 226 4.8 4.8 0.00 0.00 0.00 38 1004.9
20260504232307 18 227 0.0 4.8 0.00 0.00 0.00 39 1004.8
20260504231804 18 228 6.4 8.0 0.00 0.00 0.00 38 1004.9
20260504231300 18 233 4.8 8.0 0.00 0.00 0.00 37 1004.7
20260504230756 18 233 4.8 4.8 0.00 0.00 0.00 39 1004.6
20260504230254 19 247 8.0 8.0 0.00 0.00 0.00 37 1004.6
20260504225753 19 262 11.3 11.3 0.00 0.00 0.00 36 1004.5
20260504225249 19 261 8.0 11.3 0.00 0.00 0.00 37 1004.6
20260504224746 20 245 6.4 8.0 0.00 0.00 0.00 36 1004.3
20260504224243 19 238 4.8 4.8 0.00 0.00 0.00 37 1004.2
20260504223740 19 237 3.2 4.8 0.00 0.00 0.00 38 1004.1
20260504223235 19 258 4.8 8.0 0.00 0.00 0.00 37 1004.4
20260504222733 19 243 6.4 11.3 0.00 0.00 0.00 37 1004.3
20260504222229 19 241 6.4 8.0 0.00 0.00 0.00 37 1004.3
20260504221727 18 257 4.8 8.0 0.00 0.00 0.00 38 1004.2
20260504221224 19 240 8.0 8.0 0.00 0.00 0.00 38 1004.1
20260504220720 18 258 8.0 11.3 0.00 0.00 0.00 36 1004.4
20260504220218 19 266 6.4 11.3 0.00 0.00 0.00 36 1004.2
20260504215714 18 281 6.4 8.0 0.00 0.00 0.00 35 1004.3
20260504215211 18 266 8.0 11.3 0.00 0.00 0.00 36 1004.2
20260504214707 18 255 8.0 11.3 0.00 0.00 0.00 37 1004.2
20260504214204 19 277 16.1 19.3 0.00 0.00 0.00 36 1004.2
20260504213700 19 265 14.5 19.3 0.00 0.00 0.00 35 1004.2
20260504213157 20 266 12.9 16.1 0.00 0.00 0.00 35 1004.0
20260504212654 20 317 11.3 24.1 0.00 0.00 0.00 34 1004.2
20260504212150 20 245 14.5 16.1 0.00 0.00 0.00 34 1004.1
20260504211648 20 257 12.9 16.1 0.00 0.00 0.00 35 1004.2
20260504211144 20 278 8.0 14.5 0.00 0.00 0.00 36 1004.2
20260504210642 20 250 11.3 19.3 0.00 0.00 0.00 34 1004.0
20260504210138 20 267 11.3 14.5 0.00 0.00 0.00 36 1004.0
20260504205636 19 257 14.5 16.1 0.00 0.00 0.00 36 1004.1
20260504205133 19 249 11.3 16.1 0.00 0.00 0.00 39 1004.0
20260504204632 19 289 16.1 22.5 0.00 0.00 0.00 37 1004.1
20260504204130 20 266 14.5 22.5 0.00 0.00 0.00 35 1004.1
20260504203628 20 273 17.7 22.5 0.00 0.00 0.00 36 1004.2
20260504203125 20 233 22.5 27.4 0.00 0.00 0.00 35 1004.2
20260504202620 19 325 16.1 27.4 0.00 0.00 0.00 36 1004.0
20260504202117 19 269 16.1 22.5 0.00 0.00 0.00 37 1004.3
20260504201614 19 255 12.9 24.1 0.00 0.00 0.00 38 1004.2
20260504201112 19 273 12.9 14.5 0.00 0.00 0.00 37 1004.2
20260504200609 18 266 17.7 27.4 0.00 0.00 0.00 38 1004.2
20260504200105 18 252 14.5 24.1 0.00 0.00 0.00 38 1004.4
20260504195601 18 305 24.1 30.6 0.00 0.00 0.00 39 1004.5
20260504195057 18 270 14.5 16.1 0.00 0.00 0.00 39 1004.3
20260504194554 19 266 17.7 24.1 0.00 0.00 0.00 38 1004.5
20260504194050 18 274 17.7 27.4 0.00 0.00 0.00 39 1004.8
20260504193547 18 282 14.5 16.1 0.00 0.00 0.00 39 1004.4
20260504193045 18 268 20.9 24.1 0.00 0.00 0.00 41 1004.7
20260504192543 18 310 17.7 24.1 0.00 0.00 0.00 42 1004.8
20260504192041 18 279 12.9 24.1 0.00 0.00 0.00 41 1004.6
20260504191538 18 293 12.9 16.1 0.00 0.00 0.00 41 1004.7
20260504191034 17 278 6.4 19.3 0.00 0.00 0.00 45 1004.7
20260504190531 17 311 3.2 4.8 0.00 0.00 0.00 45 1004.8
20260504190027 16 339 4.8 4.8 0.00 0.00 0.00 46 1004.8
20260504185525 16 270 6.4 14.5 0.00 0.00 0.00 46 1005.0
20260504185021 16 312 4.8 8.0 0.00 0.00 0.00 47 1005.0
20260504184516 16 272 8.0 19.3 0.00 0.00 0.00 45 1005.1
20260504184012 17 266 8.0 14.5 0.00 0.00 0.00 45 1005.1
20260504183509 16 271 9.7 14.5 0.00 0.00 0.00 46 1005.2
20260504183008 16 326 9.7 14.5 0.00 0.00 0.00 47 1005.2
20260504182504 17 323 9.7 16.1 0.00 0.00 0.00 45 1005.1
20260504182001 17 278 4.8 8.0 0.00 0.00 0.00 46 1005.1
20260504181458 16 313 8.0 16.1 0.00 0.00 0.00 48 1005.2
20260504180956 16 286 9.7 14.5 0.00 0.00 0.00 48 1005.3
20260504180455 16 277 8.0 14.5 0.00 0.00 0.00 48 1005.2
20260504175953 16 309 9.7 11.3 0.00 0.00 0.00 47 1005.1
20260504175450 16 295 9.7 14.5 0.00 0.00 0.00 46 1005.2
20260504174947 16 288 8.0 11.3 0.00 0.00 0.00 47 1005.2
20260504174445 16 315 4.8 14.5 0.00 0.00 0.00 45 1005.2
20260504173942 16 273 12.9 24.1 0.00 0.00 0.00 44 1005.0
20260504173438 17 303 12.9 24.1 0.00 0.00 0.00 42 1005.0
20260504172936 17 273 11.3 19.3 0.00 0.00 0.00 43 1005.0
20260504172432 16 283 11.3 16.1 0.00 0.00 0.00 44 1005.2
20260504171929 16 285 17.7 27.4 0.00 0.00 0.00 43 1005.3
20260504171426 16 292 11.3 24.1 0.00 0.00 0.00 43 1005.2
20260504170923 16 253 17.7 19.3 0.00 0.00 0.00 43 1005.1
20260504170419 16 284 16.1 24.1 0.00 0.00 0.00 41 1005.0
20260504160338 17 255 16.1 22.5 0.00 0.00 0.00 40 1004.4
20260504150803 15 236 11.3 16.1 0.00 0.00 0.00 46 1005.2
20260504150259 15 242 8.0 14.5 0.00 0.00 0.00 48 1005.3
20260504141229 12 212 6.4 8.0 0.00 0.00 0.00 57 1006.0
20260504140726 12 231 8.0 11.3 0.00 0.00 0.00 59 1006.5
20260504140221 12 222 9.7 14.5 0.00 0.00 0.00 59 1006.0
20260504130650 10 252 4.8 14.5 0.00 0.00 0.00 66 1006.9
20260504130146 10 219 14.5 16.1 0.00 0.00 0.00 63 1007.0
20260504120110 8 246 11.3 14.5 0.00 0.00 0.00 65 1007.5
20260504110537 7 8 3.2 4.8 0.00 0.00 0.00 63 1007.4
20260504100454 6 269 8.0 11.3 0.00 0.00 0.00 61 1007.2
20260504081847 6 256 9.7 14.5 0.00 0.00 0.00 51 1007.2
20260504081343 5 252 8.0 14.5 0.00 0.00 0.00 53 1007.2
20260504080839 6 262 4.8 4.8 0.00 0.00 0.00 53 1007.2
20260504080337 6 279 4.8 8.0 0.00 0.00 0.00 52 1007.2
20260504070304 5 262 8.0 11.3 0.00 0.00 0.00 55 1007.3
20260504060224 5 258 9.7 11.3 0.00 0.00 0.00 57 1007.1
20260504050652 5 265 8.0 11.3 0.00 0.00 0.00 59 1006.9
20260504050149 5 260 9.7 11.3 0.00 0.00 0.00 59 1006.9
20260504045646 5 251 9.7 11.3 0.00 0.00 0.00 61 1007.2
20260504045146 4 264 8.0 8.0 0.00 0.00 0.00 64 1007.0
20260504044644 4 264 6.4 11.3 0.00 0.00 0.00 64 1007.2
20260504044141 5 264 6.4 8.0 0.00 0.00 0.00 63 1007.1
20260504043638 5 259 6.4 8.0 0.00 0.00 0.00 64 1006.9
20260504043135 5 263 4.8 8.0 0.00 0.00 0.00 63 1006.9
20260504042632 5 256 4.8 8.0 0.00 0.00 0.00 62 1007.1
20260504042129 5 245 4.8 4.8 0.00 0.00 0.00 63 1007.0
20260504041625 5 244 4.8 4.8 0.00 0.00 0.00 62 1006.9
20260504041121 4 245 4.8 4.8 0.00 0.00 0.00 64 1007.0
20260504040619 4 243 3.2 4.8 0.00 0.00 0.00 64 1007.0
20260504040115 5 243 4.8 4.8 0.00 0.00 0.00 64 1007.1
20260504035612 4 243 3.2 4.8 0.00 0.00 0.00 65 1006.9
20260504035108 4 243 3.2 4.8 0.00 0.00 0.00 63 1006.8
20260504034607 4 244 1.6 3.2 0.00 0.00 0.00 67 1006.7
20260504034103 5 243 1.6 3.2 0.00 0.00 0.00 62 1006.8
20260504033601 5 244 3.2 4.8 0.00 0.00 0.00 63 1006.9